TimePDT,TemperatureF,Dew PointF,Humidity,Sea Level PressureIn,VisibilityMPH,Wind Direction,Wind SpeedMPH,Gust SpeedMPH,PrecipitationIn,Events,Conditions,WindDirDegrees,DateUTC
12:53 AM,59.0,44.1,58,29.89,10.0,ESE,5.8,-,N/A,,Clear,110,2012-10-18 07:53:00
1:53 AM,64.0,41.0,43,29.89,10.0,East,13.8,-,N/A,,Clear,90,2012-10-18 08:53:00
2:53 AM,66.9,39.0,36,29.88,10.0,East,18.4,-,N/A,,Clear,100,2012-10-18 09:53:00
3:53 AM,64.9,39.0,39,29.88,10.0,East,16.1,-,N/A,,Clear,80,2012-10-18 10:53:00
4:53 AM,66.0,37.9,36,29.88,10.0,East,13.8,-,N/A,,Clear,90,2012-10-18 11:53:00
5:53 AM,64.9,37.9,37,29.89,10.0,East,13.8,-,N/A,,Clear,90,2012-10-18 12:53:00
6:53 AM,64.9,39.0,39,29.91,10.0,East,12.7,-,N/A,,Clear,80,2012-10-18 13:53:00
7:53 AM,66.9,39.9,37,29.92,10.0,East,16.1,-,N/A,,Clear,90,2012-10-18 14:53:00
8:53 AM,71.1,41.0,34,29.94,10.0,East,15.0,-,N/A,,Clear,90,2012-10-18 15:53:00
9:53 AM,75.9,42.1,30,29.96,10.0,East,18.4,-,N/A,,Clear,100,2012-10-18 16:53:00
10:53 AM,80.1,44.1,28,29.97,10.0,East,13.8,-,N/A,,Clear,100,2012-10-18 17:53:00
11:53 AM,86.0,48.0,27,29.97,10.0,ESE,9.2,-,N/A,,Clear,110,2012-10-18 18:53:00
12:53 PM,90.0,45.0,21,29.97,10.0,NNW,9.2,-,N/A,,Clear,330,2012-10-18 19:53:00
1:53 PM,87.1,48.0,26,29.96,10.0,West,8.1,-,N/A,,Clear,270,2012-10-18 20:53:00
2:53 PM,87.1,52.0,30,29.94,10.0,WNW,11.5,-,N/A,,Clear,290,2012-10-18 21:53:00
3:53 PM,86.0,51.1,30,29.96,10.0,WNW,11.5,-,N/A,,Clear,300,2012-10-18 22:53:00
4:53 PM,80.1,61.0,52,29.96,10.0,WNW,13.8,20.7,N/A,,Clear,300,2012-10-18 23:53:00
5:53 PM,75.0,61.0,62,29.97,10.0,NW,16.1,24.2,N/A,,Clear,320,2012-10-19 00:53:00
6:53 PM,72.0,62.1,71,29.99,10.0,NW,17.3,23.0,N/A,,Clear,320,2012-10-19 01:53:00
7:53 PM,72.0,62.1,71,30.01,10.0,NW,16.1,-,N/A,,Clear,320,2012-10-19 02:53:00
8:53 PM,66.9,62.1,84,30.03,10.0,NW,11.5,-,N/A,,Clear,320,2012-10-19 03:53:00
9:53 PM,66.9,62.1,84,30.05,10.0,NW,10.4,-,N/A,,Scattered Clouds,310,2012-10-19 04:53:00
10:06 PM,66.2,62.6,88,30.03,10.0,NW,9.2,17.3,N/A,,Mostly Cloudy,310,2012-10-19 05:06:00
10:53 PM,69.1,62.1,78,30.06,10.0,NW,9.2,-,N/A,,Overcast,310,2012-10-19 05:53:00
11:53 PM,66.9,62.1,84,30.07,10.0,West,5.8,-,N/A,,Overcast,280,2012-10-19 06:53:00